Location: 5810 Zion Rd, Cleves, OH 45002, USA
(39.1922°N, 84.7113°W)
Time: 09:21:53
(UTC-05:00)

Vanguard 3 - Pass Details

Date: 20 December 2019
Orbit: 507 x 3263 km, 33.4° (Epoch: 24 January)

Event Time Altitude Azimuth Distance (km) Brightness Sun altitude
Rises 10:25:35 0° 271° (W) 3,828 10.3 20.3°
Reaches altitude 10° 10:27:59 10° 263° (W) 3,152 10.0 20.6°
Maximum altitude 10:35:27 39° 197° (SSW) 2,392 10.4 21.3°
Drops below altitude 10° 10:47:52 10° 136° (SE) 5,210 12.9 22.4°
Sets 10:53:10 0° 130° (SE) 6,610 12.9 22.9°
